Terminal Aerodrome Forecast
Issued by NWS

Home | Current Version | Previous Version | Text Only | Print | Product List | Glossary On
Versions: 1 2 3 4 5 6 7 8 9 10 11 12 13 14 15 16 17 18 19
000
FTUS43 KGRR 070242 AAD
TAFMKG
TAF AMD
KMKG 070242Z 0703/0724 20012KT 2SM TSRA BR OVC025CB
      TEMPO 0703/0705 5SM BR BKN035
     FM070500 21011KT 6SM -SHRA BR VCTS BKN025CB OVC050
     FM070800 28010KT 4SM -SHRA BR OVC009
     FM071300 36010KT P6SM SCT025
     FM071800 32011G20KT P6SM SKC=

USA.gov is the U.S. government's official web portal to all federal, state and local government web resources and services.